Location: Tel Aviv
(32.0670°N, 34.7670°E)
Time: 04:02:03
(UTC+03:00)

Vanguard 2 - Pass Details

Date: 30 January 2022
Orbit: 552 x 2935 km, 32.9° (Epoch: 25 May)

Event Time Altitude Azimuth Distance (km) Brightness Sun altitude
Rises 00:28:23 0° 284° (WNW) 5,311 - -73.7°
Reaches altitude 10° 00:31:34 10° 279° (W) 4,591 - -73.4°
Maximum altitude 00:44:42 51° 209° (SSW) 3,182 - -71.7°
Drops below altitude 10° 01:01:34 10° 140° (SE) 5,745 - -69.1°
Exits shadow 01:01:59 - 140° (SE) 5,831 11.9 -69.0°
Sets 01:06:09 0° 136° (SE) 6,687 12.4 -68.3°
